Weather History for Leticia, Colombia

Change the Weather History Date:

Wednesday, November 28, 2012

  Actual Average Record
Temperature  
Mean Temperature 84 °F -  
Max Temperature 93 °F 85 °F 93 °F (2005)
Min Temperature 75 °F 72 °F 59 °F (1998)
Cooling Degree Days 19    
Growing Degree Days 34 (Base 50)    
Moisture  
Dew Point 78 °F    
Average Humidity 88    
Maximum Humidity 100    
Minimum Humidity 61    
Precipitation  
Precipitation 0.12 in 0.40 in - ()
Sea Level Pressure  
Sea Level Pressure 29.77 in    
Wind  
Wind Speed 1 mph ()    
Max Wind Speed 7 mph    
Max Gust Speed -    
Visibility 7.1 miles    
Events Thunderstorm    
Averages and records for this station are not official NWS values.
T = Trace of Precipitation, MM = Missing Value Source: Averaged Metar Reports

Daily Weather History Graph

Daily Weather History Graph

Search for Another Location

Airport:

Trip Planner

Search our weather history database for the weather conditions in past years. The results will help you decide how hot, cold, wet, or windy it might be!

Date:

Astronomy

Nov. 28, 2012 Rise Set
Actual Time 5:17 AM COT 5:38 PM COT
Civil Twilight 4:55 AM COT 6:00 PM COT
Nautical Twilight 4:29 AM COT 6:26 PM COT
Astronomical Twilight 4:03 AM COT 6:52 PM COT
Moon 5:51 PM COT (11/28) 5:13 AM COT (11/28)
Length of Visible Light 13h 05m
Length of Day
12h 20m
Full, 100% of the Moon is Illuminated
Nov 28
Full
Dec 6
Last Quarter
Dec 13
New
Dec 20
First Quarter
Dec 28
Full

Hourly Weather History & Observations

Time (COT) Temp. Heat Index Dew Point Humidity Pressure Visibility Wind Dir Wind Speed Gust Speed Precip Events Conditions
12:00 AM 75.2 °F - 75.2 °F 100% 29.79 in - Calm Calm - N/A   Clear
1:00 AM 76 °F - 74 °F 93% 29.77 in 12 mi Calm Calm - -   Scattered Clouds
1:00 AM 75.2 °F - 75.2 °F 100% 29.77 in - Calm Calm - N/A   Clear
3:00 AM 75.2 °F - 73.4 °F 94% 29.77 in - Calm Calm - N/A   Clear
4:00 AM 76 °F - 74 °F 94% 29.75 in 12 mi Calm Calm - -   Scattered Clouds
4:00 AM 75.2 °F - 75.2 °F 100% 29.75 in 6.2 mi Calm Calm - N/A   Scattered Clouds
5:00 AM 77.0 °F - 75.2 °F 94% 29.75 in 6.2 mi Calm Calm - N/A   Mostly Cloudy
6:00 AM 75.2 °F - 75.2 °F 100% 29.78 in 6.2 mi Calm Calm - N/A   Scattered Clouds
7:00 AM 78 °F - 76 °F 92% 29.83 in 12 mi Calm Calm - -   Scattered Clouds
7:00 AM 78.8 °F - 77.0 °F 94% 29.82 in 6.2 mi Calm Calm - N/A   Mostly Cloudy
8:00 AM 82.4 °F 92.4 °F 78.8 °F 89% 29.83 in 6.2 mi Calm Calm - N/A   Mostly Cloudy
9:00 AM 84.2 °F 96.1 °F 78.8 °F 84% 29.84 in 6.2 mi Calm Calm - N/A   Mostly Cloudy
10:00 AM 87.8 °F 104.9 °F 80.6 °F 79% 29.83 in 6.2 mi West 3.5 mph - N/A   Scattered Clouds
11:00 AM 91.4 °F 111.0 °F 80.6 °F 71% 29.82 in 6.2 mi WNW 4.6 mph - N/A   Mostly Cloudy
12:00 PM 93.2 °F 113.6 °F 80.6 °F 67% 29.80 in 6.2 mi NW 4.6 mph - N/A   Mostly Cloudy
1:00 PM 92 °F - 80 °F 61% 29.78 in 12 mi WNW 4.5 mph - -   Mostly Cloudy
1:00 PM 91.4 °F 111.0 °F 80.6 °F 71% 29.78 in 6.2 mi WNW 3.5 mph - N/A   Mostly Cloudy
2:00 PM 93.2 °F 113.6 °F 80.6 °F 67% 29.75 in 5.0 mi Variable 2.3 mph - N/A Thunderstorm Thunderstorm
3:00 PM 86.0 °F 99.3 °F 78.8 °F 79% 29.72 in 5.0 mi Variable 2.3 mph - N/A Thunderstorm Thunderstorm
4:00 PM 89.6 °F 108.2 °F 80.6 °F 75% 29.68 in 6.2 mi North 3.5 mph - N/A   Mostly Cloudy
5:00 PM 89.6 °F 108.2 °F 80.6 °F 75% 29.68 in 6.2 mi Calm Calm - N/A   Mostly Cloudy
6:00 PM 86.0 °F 104.7 °F 82.4 °F 89% 29.70 in 6.2 mi Calm Calm - N/A   Mostly Cloudy
7:00 PM 83 °F - 81 °F 92% 29.74 in 5 mi NW 6.7 mph - - Thunderstorm Thunderstorm
7:00 PM 84.2 °F 98.3 °F 80.6 °F 89% 29.74 in 5.0 mi NW 6.9 mph - N/A Thunderstorm Thunderstorm
7:10 PM 77.0 °F - 77.0 °F 100% 29.77 in 6.2 mi Calm Calm - N/A   Mostly Cloudy
8:00 PM 77.0 °F - 77.0 °F 100% 29.77 in 6.2 mi Calm Calm - N/A   Mostly Cloudy
9:00 PM 77.0 °F - 77.0 °F 100% 29.80 in 6.2 mi Calm Calm - N/A   Mostly Cloudy
10:00 PM 78 °F - 77 °F 94% 29.81 in 12 mi Calm Calm - -   Partly Cloudy
10:00 PM 78.8 °F - 77.0 °F 94% 29.81 in 6.2 mi Calm Calm - N/A   Mostly Cloudy
11:00 PM 78.8 °F - 77.0 °F 94% 29.82 in 6.2 mi Calm Calm - N/A   Mostly Cloudy